Regional Weather Roundup
Issued by NWS State College, PA

Home | Current Version | Previous Version | Text Only | Print | Product List | Glossary On
Versions: 1 2 3 4 5 6 7 8 9 10 11 12 13 14 15 16 17 18 19 20 21 22 23 24 25 26 27 28 29 30 31 32 33 34 35 36 37 38 39 40 41 42 43 44 45 46 47 48 49 50
000
ASUS41 KCTP 201903
RWRCTP

REGIONAL WEATHER ROUNDUP
NATIONAL WEATHER SERVICE STATE COLLEGE PA
300 PM EDT SAT SEP 20 2014

Note: "fair" indicates few or no clouds below 12,000 feet with no
significant weather and/or obstructions to visibility.

* = STATION THAT DOES NOT REPORT PRECIPITATION /E.G. RAIN...SNOW...ETC/
    THUNDER OR FOG.

PAZ002>004-007>009-013>016-020>023-029>032-202000-
WESTERN PENNSYLVANIA

CITY           SKY/WX    TMP DP  RH WIND       PRES   REMARKS
ERIE           MOSUNNY   78  58  49 S16G25    29.94F
MEADVILLE      PTSUNNY   73  60  63 S13G21    30.00F
FRANKLIN*      PTSUNNY   73  59  60 S16G24    30.04F
NEW CASTLE     NOT AVBL
BEAVER COUNTY  PTSUNNY   75  61  60 S12G18    30.04F
BUTLER*        PTSUNNY   75  61  60 SW13G20   30.07F
PITTSBURGH INT CLOUDY    75  60  59 SW9       30.06F
PITTSBURGH     PTSUNNY   76  58  53 S9G18     30.06F
INDIANA*       MOSUNNY   79  61  53 SW12      30.11F
LATROBE        MOSUNNY   79  63  57 S12       30.08F
WASHINGTON CO* PTSUNNY   77  63  61 SW10G18   30.07F
$$

PAZ004>006-010>012-017>019-024>028-033>037-041-042-045-046-049>053-202000-
CENTRAL PENNSYLVANIA

CITY           SKY/WX    TMP DP  RH WIND       PRES   REMARKS
BRADFORD       PTSUNNY   71  54  54 S15G24    30.05F
DUBOIS         MOSUNNY   73  60  63 SW10      30.07F
CLEARFIELD     PTSUNNY   75  58  55 S13G20    30.07F
JOHNSTOWN      CLOUDY    75  56  51 SW12G20   30.11F
ALTOONA        SUNNY     77  58  51 S13       30.11F
STATE COLLEGE  MOSUNNY   73  59  60 S12       30.10F
WILLIAMSPORT   MOSUNNY   74  58  57 S12G23    30.08F
SELINSGROVE    MOSUNNY   78  58  49 VRB7G17   30.11F
FT INDIANTOWN  PTSUNNY   79  59  49 S9        30.13F
CAPITAL CITY   MOSUNNY   80  57  45 S14       30.12F
HARRISBURG     PTSUNNY   80  58  46 SW12G20   30.11F
YORK           MOSUNNY   79  58  48 VRB6      30.13F
$$

PAZ038>040-043-044-047-048-054-055-060>062-067>071-202000-
EASTERN PENNSYLVANIA

CITY           SKY/WX    TMP DP  RH WIND       PRES   REMARKS
SCRANTON       PTSUNNY   73  57  57 S10G17    30.13F
MOUNT POCONO   CLOUDY    67  54  63 S14G21    30.19F
ALLENTOWN      PTSUNNY   77  56  48 S14       30.15F
QUAKERTOWN*    MOCLDY    75  57  53 S9        30.17F
READING        MOSUNNY   77  57  50 SE10      30.13F
LANCASTER      MOSUNNY   75  57  53 S13       30.14F
COATESVILLE    PTCLDY    73  59  60 S7        30.16F
POTTSTOWN      PTSUNNY   76  57  51 S8        30.17F
BLUE BELL      MOSUNNY   81  59  47 S9        30.15F
DOYLESTOWN     MOSUNNY   74  56  53 S8G18     30.15F
WILLOW GROVE   NOT AVBL
NORTH PHILA    MOSUNNY   79  55  43 S9        30.17F
PHILADELPHIA   MOSUNNY   79  59  50 S9        30.16F
$$


USA.gov is the U.S. government's official web portal to all federal, state and local government web resources and services.